Satellite: MET-3/5
Catalog number: 21655
Epoch time:      09021.90864912
Element set:    0605
Inclination:      082.5527 deg
RA of node:       309.8472 deg
Eccentricity:    0.0012840
Arg of perigee:   182.5691 deg
Mean anomaly:     177.5367 deg
Mean motion:   13.17017901 rev/day
Decay rate:        5.1e-07 rev/day^2
Epoch rev:           83837
Checksum:              310

Satellite: MET-2/21
Catalog number: 22782
Epoch time:      09022.32167056
Element set:     358
Inclination:      082.5488 deg
RA of node:       297.7269 deg
Eccentricity:    0.0023563
Arg of perigee:   038.7374 deg
Mean anomaly:     321.5466 deg
Mean motion:   13.83634764 rev/day
Decay rate:        3.2e-07 rev/day^2
Epoch rev:           77743
Checksum:              329

Satellite: OKEAN-4
Catalog number: 23317
Epoch time:      09021.78827687
Element set:    0808
Inclination:      082.5398 deg
RA of node:       111.1117 deg
Eccentricity:    0.0023538
Arg of perigee:   124.3689 deg
Mean anomaly:     235.9757 deg
Mean motion:   14.82668647 rev/day
Decay rate:        2.6e-07 rev/day^2
Epoch rev:           77067
Checksum:              339

Satellite: NOAA-14
Catalog number: 23455
Epoch time:      09021.88339275
Element set:    0486
Inclination:      098.9244 deg
RA of node:       100.0017 deg
Eccentricity:    0.0008777
Arg of perigee:   242.4240 deg
Mean anomaly:     117.6018 deg
Mean motion:   14.13756474 rev/day
Decay rate:       -5.6e-07 rev/day^2
Epoch rev:           72525
Checksum:              301

Satellite: NOAA-15
Catalog number: 25338
Epoch time:      09021.90955664
Element set:    0784
Inclination:      098.5741 deg
RA of node:       014.4116 deg
Eccentricity:    0.0011444
Arg of perigee:   121.8532 deg
Mean anomaly:     238.3756 deg
Mean motion:   14.24742693 rev/day
Decay rate:        4.8e-07 rev/day^2
Epoch rev:           55594
Checksum:              316

Satellite: RESURS
Catalog number: 25394
Epoch time:      09021.67654882
Element set:    0139
Inclination:      098.3596 deg
RA of node:       061.3475 deg
Eccentricity:    0.0000983
Arg of perigee:   317.6998 deg
Mean anomaly:     042.4106 deg
Mean motion:   14.24179213 rev/day
Decay rate:       -1.9e-07 rev/day^2
Epoch rev:           54754
Checksum:              320

Satellite: FENGYUN1
Catalog number: 25730
Epoch time:      09022.88287167
Element set:     668
Inclination:      098.7435 deg
RA of node:       357.4834 deg
Eccentricity:    0.0022029
Arg of perigee:   269.0624 deg
Mean anomaly:     090.8021 deg
Mean motion:   14.07920503 rev/day
Decay rate:        6.5e-07 rev/day^2
Epoch rev:           49987
Checksum:              321

Satellite: OKEAN-0
Catalog number: 25860
Epoch time:      09021.49925975
Element set:    0581
Inclination:      097.7712 deg
RA of node:       008.6368 deg
Eccentricity:    0.0000769
Arg of perigee:   039.8036 deg
Mean anomaly:     320.3217 deg
Mean motion:   14.73554870 rev/day
Decay rate:        2.7e-07 rev/day^2
Epoch rev:           51154
Checksum:              310

Satellite: NOAA-16
Catalog number: 26536
Epoch time:      09021.94765215
Element set:    0260
Inclination:      099.1736 deg
RA of node:       022.1027 deg
Eccentricity:    0.0010224
Arg of perigee:   335.7948 deg
Mean anomaly:     024.2715 deg
Mean motion:   14.12508099 rev/day
Decay rate:      -1.48e-06 rev/day^2
Epoch rev:           42965
Checksum:              295

Satellite: NOAA-17
Catalog number: 27453
Epoch time:      09021.92564793
Element set:    0273
Inclination:      098.5071 deg
RA of node:       085.8999 deg
Eccentricity:    0.0011702
Arg of perigee:   185.9749 deg
Mean anomaly:     174.1289 deg
Mean motion:   14.24034806 rev/day
Decay rate:        7.8e-07 rev/day^2
Epoch rev:           34193
Checksum:              340

Satellite: NOAA-18
Catalog number: 28654
Epoch time:      09021.92482227
Element set:    0758
Inclination:      098.8923 deg
RA of node:       326.4141 deg
Eccentricity:    0.0015158
Arg of perigee:   057.6048 deg
Mean anomaly:     302.6598 deg
Mean motion:   14.11226034 rev/day
Decay rate:      -1.33e-06 rev/day^2
Epoch rev:           18932
Checksum:              310

/EX
SB KEPS @ AMSAT  $ORB09022.M
Orbital Elements  09022.MISC

HR AMSAT ORBITAL ELEMENTS FOR MANNED AND MISCELLANEOUS SATELLITES
FROM WA5QGD FORT WORTH,TX January 22, 2009
Send Subscribe/unsubscribe to KEPS at 
http://www.amsat.org/mailman/listinfo/keps
BID: ORB09022.M
TO ALL RADIO AMATEURS BT

Satellite: HUBBLE
Catalog number: 20580
Epoch time:      09022.18601970
Element set:     310
Inclination:      028.4706 deg
RA of node:       334.7858 deg
Eccentricity:    0.0003769
Arg of perigee:   187.4040 deg
Mean anomaly:     172.6493 deg
Mean motion:   15.00448878 rev/day
Decay rate:       3.10e-06 rev/day^2
Epoch rev:           82790
Checksum:              294

Satellite: PO-34
Catalog number: 25520
Epoch time:      09022.69719188
Element set:     169
Inclination:      028.4596 deg
RA of node:       149.0846 deg
Eccentricity:    0.0005800
Arg of perigee:   160.0295 deg
Mean anomaly:     200.0525 deg
Mean motion:   15.17287130 rev/day
Decay rate:       3.59e-06 rev/day^2
Epoch rev:           56653
Checksum:              302

